This is the latest recevied weather packets stored in our database for station/object VU35KB-13. If no packets are shown the sender has not sent any weather packets the latest 10 day(s).
| Time | Temp. | Humidity | Pressure | Rain* | Wind** | Luminosity | Snow |
|---|---|---|---|---|---|---|---|
| 1787808704 | 26.11° C | 72% | 910.7 hPa | - | - | - | - |
| 1787807800 | 26.11° C | 73% | 910.9 hPa | - | - | - | - |
| 1787806896 | 25.56° C | 73% | 910.8 hPa | - | - | - | - |
| 1787805992 | 25.56° C | 72% | 910.8 hPa | - | - | - | - |
| 1787805088 | 26.11° C | 76% | 910.7 hPa | - | - | - | - |
| 1787804184 | 26.67° C | 73% | 910.7 hPa | - | - | - | - |
| 1787803280 | 26.11° C | 74% | 910.7 hPa | - | - | - | - |
| 1787802376 | 26.67° C | 76% | 910.7 hPa | - | - | - | - |
| 1787801472 | 26.67° C | 75% | 910.8 hPa | - | - | - | - |
| 1787800567 | 26.11° C | 76% | 910.8 hPa | - | - | - | - |
| 1787799663 | 26.11° C | 79% | 910.6 hPa | - | - | - | - |
| 1787798759 | 25.56° C | 81% | 910.5 hPa | - | - | - | - |
| 1787797854 | 26.11° C | 82% | 910.4 hPa | - | - | - | - |
| 1787796950 | 25.56° C | 79% | 910.2 hPa | - | - | - | - |
| 1787796046 | 26.11° C | 77% | 910.2 hPa | - | - | - | - |
| 1787795142 | 26.11° C | 77% | 910 hPa | - | - | - | - |
| 1787794238 | 26.67° C | 78% | 909.7 hPa | - | - | - | - |
| 1787793334 | 26.67° C | 78% | 909.6 hPa | - | - | - | - |
| 1787792430 | 26.67° C | 78% | 909.5 hPa | - | - | - | - |
| 1787791525 | 26.67° C | 79% | 909.4 hPa | - | - | - | - |
| 1787790621 | 27.22° C | 83% | 909.3 hPa | - | - | - | - |
| 1787789717 | 26.67° C | 80% | 909.2 hPa | - | - | - | - |
| 1787788745 | 27.22° C | 75% | 909.1 hPa | - | - | - | - |
| 1787787842 | 27.22° C | 75% | 909 hPa | - | - | - | - |
| 1787786938 | 27.22° C | 75% | 909 hPa | - | - | - | - |
* Rain since midnight (hover to see other rain measurements)
** Current wind speed in m/s (hover to see current wind gust speed)